Location: Bieg
(49.3499°N, 10.3835°E)
Time: 07:52:49
(UTC+00:00)

COSMOS 2251 DEB - Visible Passes

Search period start: 07 October 2024 00:00
Search period end: 17 October 2024 00:00
Orbit: 754 x 790 km, 74.0° (Epoch: 06 October)

Date Brightness Start Highest point End Pass type
(mag) Time Alt. Az. Time Alt. Az. Time Alt. Az.
07 Oct ? 01:02:58 17° N 01:02:58 17° N 01:04:10 10° NNE visible
07 Oct ? 02:43:19 10° NNW 02:43:19 10° NNW 02:43:36 10° NNW visible
08 Oct ? 00:27:51 13° NNE 00:27:51 13° NNE 00:28:27 10° NNE visible
08 Oct ? 02:08:12 12° NNW 02:08:12 12° NNW 02:09:15 10° N visible
09 Oct ? 01:33:03 13° N 01:33:03 13° N 01:33:58 10° N visible
10 Oct ? 00:57:54 12° N 00:57:54 12° N 00:58:27 10° N visible
11 Oct ? 00:22:44 10° NNE 00:22:44 10° NNE 00:22:49 10° NNE visible
